| time (UTC) | temp C | wind direction | speed KPH | gust KPH | rain 1hr cm | rain 24hr cm | rain mn cm | humidity % | barometer mb |
| 20260509022035 | 32 | 190 | 1.6 | 6.4 | 0.00 | 0.00 | 0.00 | 33 | 1005.7 |
| 20260509021559 | 32 | 190 | 0.0 | 6.4 | 0.00 | 0.00 | 0.00 | 33 | 1005.6 |
| 20260509021535 | 32 | 190 | 0.0 | 6.4 | 0.00 | 0.00 | 0.00 | 33 | 1005.6 |
| 20260509021035 | 32 | 190 | 1.6 | 6.4 | 0.00 | 0.00 | 0.00 | 33 | 1005.5 |
| 20260509020534 | 32 | 190 | 0.0 | 3.2 | 0.00 | 0.00 | 0.00 | 34 | 1005.3 |
| 20260509020058 | 32 | 190 | 0.0 | 4.8 | 0.00 | 0.00 | 0.00 | 33 | 1005.4 |
| 20260509020034 | 32 | 190 | 0.0 | 4.8 | 0.00 | 0.00 | 0.00 | 34 | 1005.4 |
| 20260509015534 | 32 | 190 | 1.6 | 4.8 | 0.00 | 0.00 | 0.00 | 34 | 1005.2 |
| 20260509015034 | 32 | 190 | 0.0 | 3.2 | 0.00 | 0.00 | 0.00 | 32 | 1005.1 |
| 20260509014556 | 32 | 0 | 0.0 | 0.0 | 0.00 | 0.00 | 0.00 | 33 | 1005.2 |
| 20260509014534 | 32 | 190 | 0.0 | 0.0 | 0.00 | 0.00 | 0.00 | 33 | 1005.0 |
| 20260509014033 | 32 | 190 | 0.0 | 0.0 | 0.00 | 0.00 | 0.00 | 33 | 1004.9 |
| 20260509013533 | 32 | 190 | 0.0 | 4.8 | 0.00 | 0.00 | 0.00 | 33 | 1004.9 |
| 20260509013059 | 32 | 0 | 1.6 | 4.8 | 0.00 | 0.00 | 0.00 | 33 | 1005.0 |
| 20260509013037 | 32 | 190 | 1.6 | 4.8 | 0.00 | 0.00 | 0.00 | 34 | 1004.8 |
| 20260509012533 | 33 | 190 | 0.0 | 3.2 | 0.00 | 0.00 | 0.00 | 34 | 1004.7 |
| 20260509012032 | 33 | 190 | 0.0 | 6.4 | 0.00 | 0.00 | 0.00 | 34 | 1004.6 |
| 20260509011606 | 33 | 190 | 1.6 | 8.0 | 0.00 | 0.00 | 0.00 | 32 | 1004.8 |
| 20260509011532 | 33 | 190 | 1.6 | 8.0 | 0.00 | 0.00 | 0.00 | 33 | 1004.6 |
| 20260509011032 | 33 | 190 | 0.0 | 8.0 | 0.00 | 0.00 | 0.00 | 33 | 1004.5 |
| 20260509010531 | 33 | 190 | 1.6 | 9.7 | 0.00 | 0.00 | 0.00 | 33 | 1004.3 |
| 20260509010058 | 33 | 190 | 3.2 | 12.9 | 0.00 | 0.00 | 0.00 | 33 | 1004.5 |
| 20260509010032 | 33 | 190 | 4.8 | 9.7 | 0.00 | 0.00 | 0.00 | 33 | 1004.4 |
| 20260509005532 | 33 | 190 | 4.8 | 14.5 | 0.00 | 0.00 | 0.00 | 33 | 1004.2 |
| 20260509005031 | 34 | 190 | 4.8 | 16.1 | 0.00 | 0.00 | 0.00 | 31 | 1004.1 |
| 20260509004611 | 35 | 190 | 8.0 | 19.3 | 0.00 | 0.00 | 0.00 | 28 | 1004.2 |
| 20260509004537 | 35 | 190 | 6.4 | 19.3 | 0.00 | 0.00 | 0.00 | 27 | 1004.0 |
| 20260509004031 | 35 | 190 | 6.4 | 20.9 | 0.00 | 0.00 | 0.00 | 27 | 1003.7 |
| 20260509003530 | 35 | 190 | 6.4 | 20.9 | 0.00 | 0.00 | 0.00 | 27 | 1003.5 |
| 20260509003058 | 35 | 190 | 6.4 | 17.7 | 0.00 | 0.00 | 0.00 | 26 | 1003.6 |
| 20260509003031 | 35 | 190 | 4.8 | 17.7 | 0.00 | 0.00 | 0.00 | 26 | 1003.4 |
| 20260509002530 | 35 | 190 | 6.4 | 19.3 | 0.00 | 0.00 | 0.00 | 26 | 1003.3 |
| 20260509002029 | 35 | 190 | 4.8 | 19.3 | 0.00 | 0.00 | 0.00 | 26 | 1003.1 |
| 20260509001559 | 36 | 190 | 6.4 | 14.5 | 0.00 | 0.00 | 0.00 | 25 | 1003.2 |
| 20260509001529 | 36 | 190 | 6.4 | 14.5 | 0.00 | 0.00 | 0.00 | 25 | 1002.9 |
| 20260509001029 | 36 | 190 | 3.2 | 14.5 | 0.00 | 0.00 | 0.00 | 26 | 1002.8 |
| 20260509000529 | 36 | 190 | 4.8 | 12.9 | 0.00 | 0.00 | 0.00 | 26 | 1002.7 |
| 20260509000059 | 36 | 190 | 4.8 | 16.1 | 0.00 | 0.00 | 0.00 | 25 | 1003.0 |
| 20260509000036 | 36 | 190 | 4.8 | 14.5 | 0.00 | 0.00 | 0.00 | 26 | 1002.6 |
| 20260508235531 | 36 | 190 | 6.4 | 16.1 | 0.00 | 0.00 | 0.00 | 25 | 1002.5 |
| 20260508235029 | 36 | 190 | 6.4 | 16.1 | 0.00 | 0.00 | 0.00 | 25 | 1002.4 |
| 20260508234559 | 36 | 190 | 6.4 | 16.1 | 0.00 | 0.00 | 0.00 | 24 | 1002.9 |
| 20260508234536 | 36 | 190 | 8.0 | 16.1 | 0.00 | 0.00 | 0.00 | 25 | 1002.5 |
| 20260508234028 | 37 | 190 | 8.0 | 16.1 | 0.00 | 0.00 | 0.00 | 24 | 1002.5 |
| 20260508233528 | 37 | 190 | 3.2 | 14.5 | 0.00 | 0.00 | 0.00 | 25 | 1002.4 |
| 20260508233059 | 37 | 190 | 6.4 | 16.1 | 0.00 | 0.00 | 0.00 | 24 | 1002.7 |
| 20260508233028 | 37 | 190 | 8.0 | 14.5 | 0.00 | 0.00 | 0.00 | 25 | 1002.2 |
| 20260508232530 | 37 | 190 | 3.2 | 16.1 | 0.00 | 0.00 | 0.00 | 24 | 1002.2 |
| 20260508232027 | 37 | 190 | 8.0 | 17.7 | 0.00 | 0.00 | 0.00 | 24 | 1002.1 |
| 20260508231557 | 37 | 190 | 6.4 | 19.3 | 0.00 | 0.00 | 0.00 | 24 | 1002.5 |
| 20260508231527 | 37 | 190 | 6.4 | 17.7 | 0.00 | 0.00 | 0.00 | 24 | 1002.1 |
| 20260508231027 | 37 | 190 | 0.0 | 19.3 | 0.00 | 0.00 | 0.00 | 24 | 1002.0 |
| 20260508230526 | 38 | 190 | 9.7 | 20.9 | 0.00 | 0.00 | 0.00 | 24 | 1002.2 |
| 20260508230104 | 38 | 190 | 9.7 | 20.9 | 0.00 | 0.00 | 0.00 | 24 | 1002.6 |
| 20260508230026 | 37 | 190 | 9.7 | 20.9 | 0.00 | 0.00 | 0.00 | 24 | 1002.2 |
| 20260508225526 | 38 | 190 | 8.0 | 19.3 | 0.00 | 0.00 | 0.00 | 24 | 1002.2 |
| 20260508225027 | 38 | 190 | 4.8 | 19.3 | 0.00 | 0.00 | 0.00 | 24 | 1002.2 |
| 20260508224603 | 38 | 190 | 0.0 | 14.5 | 0.00 | 0.00 | 0.00 | 24 | 1002.5 |
| 20260508224528 | 38 | 190 | 0.0 | 12.9 | 0.00 | 0.00 | 0.00 | 24 | 1002.1 |
| 20260508224026 | 38 | 190 | 1.6 | 19.3 | 0.00 | 0.00 | 0.00 | 24 | 1002.1 |
| 20260508223526 | 38 | 190 | 8.0 | 19.3 | 0.00 | 0.00 | 0.00 | 24 | 1002.1 |
| 20260508223101 | 38 | 190 | 4.8 | 16.1 | 0.00 | 0.00 | 0.00 | 24 | 1002.4 |
| 20260508223034 | 38 | 190 | 4.8 | 16.1 | 0.00 | 0.00 | 0.00 | 25 | 1002.0 |
| 20260508222526 | 38 | 190 | 4.8 | 16.1 | 0.00 | 0.00 | 0.00 | 25 | 1002.0 |
| 20260508222026 | 38 | 190 | 8.0 | 16.1 | 0.00 | 0.00 | 0.00 | 25 | 1002.0 |
| 20260508221605 | 38 | 190 | 3.2 | 11.3 | 0.00 | 0.00 | 0.00 | 24 | 1002.4 |
| 20260508221524 | 38 | 190 | 4.8 | 12.9 | 0.00 | 0.00 | 0.00 | 24 | 1002.0 |
| 20260508221022 | 38 | 190 | 4.8 | 11.3 | 0.00 | 0.00 | 0.00 | 25 | 1002.1 |
| 20260508220520 | 38 | 190 | 3.2 | 12.9 | 0.00 | 0.00 | 0.00 | 25 | 1002.1 |
| 20260508220113 | 37 | 190 | 6.4 | 16.1 | 0.00 | 0.00 | 0.00 | 25 | 1002.6 |
| 20260508220020 | 37 | 190 | 4.8 | 12.9 | 0.00 | 0.00 | 0.00 | 26 | 1002.2 |
| 20260508215519 | 37 | 190 | 0.0 | 16.1 | 0.00 | 0.00 | 0.00 | 25 | 1002.2 |
| 20260508215158 | 37 | 190 | 6.4 | 16.1 | 0.00 | 0.00 | 0.00 | 25 | 1002.4 |
| 20260508214606 | 37 | 190 | 8.0 | 16.1 | 0.00 | 0.00 | 0.00 | 23 | 1003.0 |
| 20260508214032 | 37 | 190 | 6.4 | 19.3 | 0.00 | 0.00 | 0.00 | 24 | 1002.7 |
| 20260508213057 | 37 | 190 | 4.8 | 16.1 | 0.00 | 0.00 | 0.00 | 24 | 1003.3 |
| 20260508213049 | 37 | 190 | 8.0 | 16.1 | 0.00 | 0.00 | 0.00 | 25 | 1003.0 |
| 20260508212549 | 37 | 190 | 0.0 | 19.3 | 0.00 | 0.00 | 0.00 | 24 | 1003.0 |
| 20260508212048 | 38 | 190 | 6.4 | 19.3 | 0.00 | 0.00 | 0.00 | 24 | 1003.2 |
| 20260508211602 | 38 | 190 | 4.8 | 11.3 | 0.00 | 0.00 | 0.00 | 23 | 1003.6 |
| 20260508211546 | 38 | 190 | 3.2 | 11.3 | 0.00 | 0.00 | 0.00 | 23 | 1003.3 |
| 20260508211047 | 38 | 190 | 0.0 | 9.7 | 0.00 | 0.00 | 0.00 | 25 | 1003.3 |
| 20260508210544 | 38 | 190 | 1.6 | 9.7 | 0.00 | 0.00 | 0.00 | 24 | 1003.5 |
| 20260508210042 | 38 | 190 | 1.6 | 11.3 | 0.00 | 0.00 | 0.00 | 24 | 1003.5 |
| 20260508205545 | 37 | 190 | 3.2 | 14.5 | 0.00 | 0.00 | 0.00 | 25 | 1003.6 |
| 20260508205041 | 37 | 190 | 1.6 | 16.1 | 0.00 | 0.00 | 0.00 | 25 | 1003.7 |
| 20260508204601 | 37 | 190 | 4.8 | 17.7 | 0.00 | 0.00 | 0.00 | 25 | 1004.2 |
| 20260508204542 | 37 | 190 | 0.0 | 17.7 | 0.00 | 0.00 | 0.00 | 26 | 1003.9 |
| 20260508204039 | 37 | 190 | 8.0 | 17.7 | 0.00 | 0.00 | 0.00 | 25 | 1004.1 |
| 20260508203537 | 37 | 190 | 1.6 | 11.3 | 0.00 | 0.00 | 0.00 | 26 | 1004.2 |
| 20260508203102 | 37 | 0 | 4.8 | 14.5 | 0.00 | 0.00 | 0.00 | 25 | 1004.7 |
| 20260508203036 | 37 | 190 | 3.2 | 14.5 | 0.00 | 0.00 | 0.00 | 26 | 1004.2 |
| 20260508202535 | 37 | 190 | 0.0 | 17.7 | 0.00 | 0.00 | 0.00 | 27 | 1004.4 |
| 20260508202033 | 37 | 190 | 1.6 | 17.7 | 0.00 | 0.00 | 0.00 | 27 | 1004.4 |
| 20260508201600 | 37 | 190 | 6.4 | 11.3 | 0.00 | 0.00 | 0.00 | 27 | 1004.9 |
| 20260508201531 | 37 | 190 | 4.8 | 11.3 | 0.00 | 0.00 | 0.00 | 28 | 1004.6 |
| 20260508201030 | 36 | 190 | 4.8 | 16.1 | 0.00 | 0.00 | 0.00 | 28 | 1004.7 |
| 20260508200529 | 36 | 190 | 6.4 | 19.3 | 0.00 | 0.00 | 0.00 | 28 | 1004.8 |
| 20260508200056 | 37 | 190 | 3.2 | 9.7 | 0.00 | 0.00 | 0.00 | 28 | 1005.4 |
| 20260508200032 | 37 | 190 | 3.2 | 9.7 | 0.00 | 0.00 | 0.00 | 28 | 1005.0 |
| 20260508195526 | 36 | 190 | 1.6 | 11.3 | 0.00 | 0.00 | 0.00 | 29 | 1005.1 |
| 20260508195025 | 36 | 190 | 1.6 | 17.7 | 0.00 | 0.00 | 0.00 | 30 | 1005.2 |
| 20260508194615 | 36 | 190 | 6.4 | 17.7 | 0.00 | 0.00 | 0.00 | 29 | 1005.6 |
| 20260508194543 | 36 | 190 | 6.4 | 17.7 | 0.00 | 0.00 | 0.00 | 30 | 1005.3 |
| 20260508194023 | 36 | 190 | 0.0 | 16.1 | 0.00 | 0.00 | 0.00 | 30 | 1005.4 |
| 20260508193522 | 36 | 190 | 3.2 | 17.7 | 0.00 | 0.00 | 0.00 | 30 | 1005.6 |
| 20260508193110 | 36 | 190 | 6.4 | 17.7 | 0.00 | 0.00 | 0.00 | 30 | 1005.9 |
| 20260508193022 | 36 | 190 | 9.7 | 17.7 | 0.00 | 0.00 | 0.00 | 30 | 1005.7 |
| 20260508192521 | 36 | 190 | 1.6 | 9.7 | 0.00 | 0.00 | 0.00 | 30 | 1005.8 |
| 20260508192021 | 36 | 190 | 0.0 | 11.3 | 0.00 | 0.00 | 0.00 | 31 | 1005.9 |
| 20260508191601 | 36 | 190 | 1.6 | 8.0 | 0.00 | 0.00 | 0.00 | 30 | 1006.2 |
| 20260508191518 | 35 | 190 | 1.6 | 8.0 | 0.00 | 0.00 | 0.00 | 31 | 1006.0 |
| 20260508191018 | 35 | 190 | 3.2 | 8.0 | 0.00 | 0.00 | 0.00 | 30 | 1006.2 |
| 20260508190516 | 35 | 190 | 0.0 | 17.7 | 0.00 | 0.00 | 0.00 | 32 | 1006.3 |
| 20260508190057 | 35 | 190 | 8.0 | 17.7 | 0.00 | 0.00 | 0.00 | 32 | 1006.7 |
| 20260508190015 | 35 | 190 | 4.8 | 17.7 | 0.00 | 0.00 | 0.00 | 32 | 1006.5 |
| 20260508185514 | 35 | 190 | 4.8 | 14.5 | 0.00 | 0.00 | 0.00 | 33 | 1006.5 |
| 20260508185013 | 35 | 190 | 4.8 | 14.5 | 0.00 | 0.00 | 0.00 | 34 | 1006.5 |
| 20260508184609 | 35 | 190 | 4.8 | 11.3 | 0.00 | 0.00 | 0.00 | 34 | 1006.9 |
| 20260508184513 | 35 | 190 | 3.2 | 11.3 | 0.00 | 0.00 | 0.00 | 34 | 1006.7 |
| 20260508184012 | 35 | 190 | 3.2 | 14.5 | 0.00 | 0.00 | 0.00 | 34 | 1006.7 |
| 20260508183510 | 35 | 190 | 1.6 | 17.7 | 0.00 | 0.00 | 0.00 | 34 | 1006.9 |
| 20260508183057 | 35 | 0 | 4.8 | 17.7 | 0.00 | 0.00 | 0.00 | 34 | 1007.2 |
| 20260508183009 | 35 | 190 | 3.2 | 17.7 | 0.00 | 0.00 | 0.00 | 34 | 1007.0 |
| 20260508182510 | 34 | 190 | 0.0 | 9.7 | 0.00 | 0.00 | 0.00 | 35 | 1007.0 |
| 20260508182006 | 35 | 190 | 3.2 | 9.7 | 0.00 | 0.00 | 0.00 | 33 | 1007.2 |
| 20260508181608 | 34 | 0 | 0.0 | 11.3 | 0.00 | 0.00 | 0.00 | 33 | 1007.5 |
| 20260508181505 | 34 | 190 | 0.0 | 11.3 | 0.00 | 0.00 | 0.00 | 34 | 1007.2 |
| 20260508181006 | 34 | 190 | 1.6 | 11.3 | 0.00 | 0.00 | 0.00 | 35 | 1007.4 |
| 20260508180504 | 34 | 190 | 1.6 | 8.0 | 0.00 | 0.00 | 0.00 | 34 | 1007.5 |
| 20260508180101 | 34 | 190 | 1.6 | 11.3 | 0.00 | 0.00 | 0.00 | 35 | 1007.7 |
| 20260508180002 | 34 | 190 | 1.6 | 11.3 | 0.00 | 0.00 | 0.00 | 36 | 1007.6 |
| 20260508175501 | 34 | 190 | 1.6 | 9.7 | 0.00 | 0.00 | 0.00 | 36 | 1007.7 |
| 20260508175101 | 33 | 190 | 0.0 | 9.7 | 0.00 | 0.00 | 0.00 | 36 | 1007.8 |
| 20260508174604 | 33 | 190 | 1.6 | 8.0 | 0.00 | 0.00 | 0.00 | 36 | 1007.8 |
| 20260508174100 | 33 | 190 | 3.2 | 9.7 | 0.00 | 0.00 | 0.00 | 36 | 1007.9 |
| 20260508173558 | 33 | 190 | 0.0 | 12.9 | 0.00 | 0.00 | 0.00 | 37 | 1008.1 |
| 20260508173058 | 33 | 190 | 4.8 | 12.9 | 0.00 | 0.00 | 0.00 | 36 | 1008.2 |
| 20260508173056 | 33 | 190 | 6.4 | 12.9 | 0.00 | 0.00 | 0.00 | 37 | 1008.2 |
| 20260508172554 | 33 | 190 | 0.0 | 8.0 | 0.00 | 0.00 | 0.00 | 37 | 1008.2 |
| 20260508172053 | 32 | 190 | 1.6 | 9.7 | 0.00 | 0.00 | 0.00 | 38 | 1008.2 |
| 20260508171558 | 33 | 190 | 1.6 | 9.7 | 0.00 | 0.00 | 0.00 | 37 | 1008.5 |
| 20260508171553 | 33 | 190 | 4.8 | 9.7 | 0.00 | 0.00 | 0.00 | 37 | 1008.4 |
| 20260508171050 | 32 | 190 | 0.0 | 9.7 | 0.00 | 0.00 | 0.00 | 38 | 1008.5 |
| 20260508170550 | 32 | 190 | 0.0 | 4.8 | 0.00 | 0.00 | 0.00 | 39 | 1008.6 |
| 20260508170058 | 32 | 190 | 0.0 | 9.7 | 0.00 | 0.00 | 0.00 | 39 | 1008.8 |
| 20260508170048 | 32 | 190 | 0.0 | 6.4 | 0.00 | 0.00 | 0.00 | 40 | 1008.7 |
| 20260508165547 | 32 | 190 | 3.2 | 9.7 | 0.00 | 0.00 | 0.00 | 40 | 1008.8 |
| 20260508165046 | 32 | 190 | 3.2 | 9.7 | 0.00 | 0.00 | 0.00 | 40 | 1009.0 |
| 20260508164600 | 31 | 0 | 0.0 | 8.0 | 0.00 | 0.00 | 0.00 | 41 | 1009.1 |
| 20260508164549 | 31 | 190 | 0.0 | 6.4 | 0.00 | 0.00 | 0.00 | 42 | 1009.0 |
| 20260508164044 | 31 | 190 | 0.0 | 8.0 | 0.00 | 0.00 | 0.00 | 42 | 1009.2 |
| 20260508163545 | 31 | 190 | 1.6 | 8.0 | 0.00 | 0.00 | 0.00 | 42 | 1009.2 |
| 20260508163058 | 31 | 190 | 3.2 | 8.0 | 0.00 | 0.00 | 0.00 | 41 | 1009.2 |
| 20260508163044 | 31 | 190 | 3.2 | 8.0 | 0.00 | 0.00 | 0.00 | 42 | 1009.3 |
| 20260508162544 | 31 | 190 | 0.0 | 3.2 | 0.00 | 0.00 | 0.00 | 43 | 1009.3 |
| 20260508162041 | 30 | 190 | 0.0 | 6.4 | 0.00 | 0.00 | 0.00 | 44 | 1009.4 |
| 20260508161559 | 30 | 0 | 1.6 | 6.4 | 0.00 | 0.00 | 0.00 | 44 | 1009.5 |
| 20260508161542 | 30 | 190 | 1.6 | 6.4 | 0.00 | 0.00 | 0.00 | 44 | 1009.6 |
| 20260508161043 | 30 | 190 | 1.6 | 4.8 | 0.00 | 0.00 | 0.00 | 44 | 1009.8 |
| 20260508160541 | 30 | 190 | 0.0 | 4.8 | 0.00 | 0.00 | 0.00 | 45 | 1009.9 |
| 20260508160131 | 30 | 0 | 0.0 | 4.8 | 0.00 | 0.00 | 0.00 | 45 | 1009.8 |
| 20260508160039 | 30 | 190 | 0.0 | 4.8 | 0.00 | 0.00 | 0.00 | 46 | 1010.0 |
| 20260508155539 | 30 | 190 | 0.0 | 4.8 | 0.00 | 0.00 | 0.00 | 46 | 1010.0 |
| 20260508155037 | 29 | 190 | 1.6 | 4.8 | 0.00 | 0.00 | 0.00 | 47 | 1010.1 |
| 20260508154558 | 29 | 190 | 0.0 | 4.8 | 0.00 | 0.00 | 0.00 | 46 | 1009.9 |
| 20260508154537 | 29 | 190 | 1.6 | 4.8 | 0.00 | 0.00 | 0.00 | 47 | 1010.1 |
| 20260508154037 | 29 | 190 | 0.0 | 4.8 | 0.00 | 0.00 | 0.00 | 47 | 1010.2 |
| 20260508153537 | 29 | 190 | 1.6 | 4.8 | 0.00 | 0.00 | 0.00 | 47 | 1010.3 |
| 20260508153059 | 29 | 0 | 0.0 | 4.8 | 0.00 | 0.00 | 0.00 | 48 | 1010.2 |
| 20260508153044 | 28 | 190 | 0.0 | 4.8 | 0.00 | 0.00 | 0.00 | 48 | 1010.3 |
| 20260508152535 | 28 | 190 | 0.0 | 4.8 | 0.00 | 0.00 | 0.00 | 48 | 1010.4 |
| 20260508152033 | 28 | 190 | 0.0 | 1.6 | 0.00 | 0.00 | 0.00 | 49 | 1010.4 |
| 20260508151600 | 28 | 0 | 0.0 | 6.4 | 0.00 | 0.00 | 0.00 | 49 | 1010.3 |
| 20260508151533 | 28 | 190 | 0.0 | 4.8 | 0.00 | 0.00 | 0.00 | 49 | 1010.4 |
| 20260508151031 | 28 | 190 | 1.6 | 6.4 | 0.00 | 0.00 | 0.00 | 50 | 1010.4 |
| 20260508150531 | 28 | 190 | 3.2 | 6.4 | 0.00 | 0.00 | 0.00 | 50 | 1010.5 |
| 20260508150059 | 28 | 0 | 0.0 | 3.2 | 0.00 | 0.00 | 0.00 | 50 | 1010.4 |
| 20260508150029 | 28 | 190 | 0.0 | 1.6 | 0.00 | 0.00 | 0.00 | 51 | 1010.5 |
| 20260508145528 | 27 | 190 | 0.0 | 3.2 | 0.00 | 0.00 | 0.00 | 51 | 1010.6 |
| 20260508145027 | 27 | 190 | 0.0 | 3.2 | 0.00 | 0.00 | 0.00 | 52 | 1010.6 |
| 20260508144630 | 27 | 190 | 0.0 | 3.2 | 0.00 | 0.00 | 0.00 | 52 | 1010.6 |
| 20260508144556 | 27 | 0 | 0.0 | 3.2 | 0.00 | 0.00 | 0.00 | 52 | 1010.6 |
| 20260508144028 | 27 | 190 | 0.0 | 3.2 | 0.00 | 0.00 | 0.00 | 53 | 1010.7 |
| 20260508143527 | 27 | 190 | 0.0 | 3.2 | 0.00 | 0.00 | 0.00 | 53 | 1010.7 |
| 20260508143106 | 27 | 0 | 0.0 | 0.0 | 0.00 | 0.00 | 0.00 | 53 | 1010.5 |
| 20260508143029 | 27 | 190 | 0.0 | 1.6 | 0.00 | 0.00 | 0.00 | 53 | 1010.6 |
| 20260508142527 | 26 | 190 | 0.0 | 0.0 | 0.00 | 0.00 | 0.00 | 54 | 1010.6 |
| 20260508142027 | 26 | 190 | 0.0 | 0.0 | 0.00 | 0.00 | 0.00 | 54 | 1010.6 |
| 20260508141610 | 26 | 0 | 0.0 | 0.0 | 0.00 | 0.00 | 0.00 | 57 | 1010.5 |
| 20260508141526 | 26 | 190 | 0.0 | 0.0 | 0.00 | 0.00 | 0.00 | 57 | 1010.6 |
| 20260508141026 | 25 | 190 | 0.0 | 0.0 | 0.00 | 0.00 | 0.00 | 58 | 1010.6 |
| 20260508140526 | 25 | 190 | 0.0 | 1.6 | 0.00 | 0.00 | 0.00 | 59 | 1010.7 |
| 20260508140058 | 25 | 0 | 0.0 | 1.6 | 0.00 | 0.00 | 0.00 | 59 | 1010.4 |
| 20260508140029 | 25 | 190 | 0.0 | 1.6 | 0.00 | 0.00 | 0.00 | 60 | 1010.6 |
| 20260508135528 | 25 | 190 | 0.0 | 0.0 | 0.00 | 0.00 | 0.00 | 61 | 1010.6 |
| 20260508135026 | 24 | 190 | 0.0 | 0.0 | 0.00 | 0.00 | 0.00 | 62 | 1010.6 |
| 20260508134559 | 23 | 0 | 0.0 | 1.6 | 0.00 | 0.00 | 0.00 | 62 | 1010.3 |
| 20260508134525 | 23 | 190 | 0.0 | 0.0 | 0.00 | 0.00 | 0.00 | 63 | 1010.7 |
| 20260508134025 | 23 | 190 | 0.0 | 4.8 | 0.00 | 0.00 | 0.00 | 63 | 1010.7 |
| 20260508133525 | 23 | 190 | 1.6 | 4.8 | 0.00 | 0.00 | 0.00 | 64 | 1010.7 |
| 20260508133102 | 23 | 190 | 1.6 | 4.8 | 0.00 | 0.00 | 0.00 | 63 | 1010.3 |
| 20260508133028 | 23 | 190 | 1.6 | 4.8 | 0.00 | 0.00 | 0.00 | 64 | 1010.7 |
| 20260508132524 | 23 | 190 | 0.0 | 3.2 | 0.00 | 0.00 | 0.00 | 64 | 1010.6 |
| 20260508132028 | 23 | 190 | 1.6 | 6.4 | 0.00 | 0.00 | 0.00 | 64 | 1010.6 |
| 20260508131607 | 23 | 0 | 1.6 | 6.4 | 0.00 | 0.00 | 0.00 | 63 | 1010.3 |
| 20260508131523 | 23 | 190 | 0.0 | 6.4 | 0.00 | 0.00 | 0.00 | 64 | 1010.6 |
| 20260508131025 | 23 | 190 | 0.0 | 4.8 | 0.00 | 0.00 | 0.00 | 63 | 1010.5 |
| 20260508130523 | 23 | 190 | 0.0 | 0.0 | 0.00 | 0.00 | 0.00 | 64 | 1010.5 |
| 20260508130105 | 23 | 0 | 0.0 | 0.0 | 0.00 | 0.00 | 0.00 | 63 | 1010.2 |
| 20260508130026 | 23 | 190 | 0.0 | 0.0 | 0.00 | 0.00 | 0.00 | 64 | 1010.4 |
| 20260508125522 | 23 | 190 | 0.0 | 0.0 | 0.00 | 0.00 | 0.00 | 64 | 1010.3 |
| 20260508125021 | 22 | 190 | 0.0 | 0.0 | 0.00 | 0.00 | 0.00 | 65 | 1010.4 |
| 20260508124558 | 22 | 0 | 0.0 | 0.0 | 0.00 | 0.00 | 0.00 | 65 | 1010.2 |
| 20260508124521 | 22 | 190 | 0.0 | 0.0 | 0.00 | 0.00 | 0.00 | 65 | 1010.4 |
| 20260508124021 | 22 | 190 | 0.0 | 0.0 | 0.00 | 0.00 | 0.00 | 66 | 1010.3 |
| 20260508123521 | 22 | 190 | 0.0 | 3.2 | 0.00 | 0.00 | 0.00 | 66 | 1010.3 |
| 20260508123058 | 22 | 0 | 0.0 | 4.8 | 0.00 | 0.00 | 0.00 | 65 | 1009.9 |
| 20260508123021 | 22 | 190 | 0.0 | 4.8 | 0.00 | 0.00 | 0.00 | 66 | 1010.2 |
| 20260508122519 | 22 | 190 | 0.0 | 4.8 | 0.00 | 0.00 | 0.00 | 66 | 1010.2 |
| 20260508122019 | 22 | 190 | 0.0 | 6.4 | 0.00 | 0.00 | 0.00 | 66 | 1010.1 |
| 20260508121610 | 22 | 0 | 3.2 | 6.4 | 0.00 | 0.00 | 0.00 | 65 | 1009.8 |
| 20260508121517 | 22 | 190 | 1.6 | 6.4 | 0.00 | 0.00 | 0.00 | 65 | 1010.0 |
| 20260508121016 | 22 | 190 | 0.0 | 4.8 | 0.00 | 0.00 | 0.00 | 65 | 1009.9 |
| 20260508120515 | 22 | 190 | 0.0 | 3.2 | 0.00 | 0.00 | 0.00 | 64 | 1009.9 |
| 20260508120058 | 22 | 190 | 0.0 | 1.6 | 0.00 | 0.00 | 0.00 | 63 | 1009.6 |
| 20260508120015 | 22 | 190 | 0.0 | 3.2 | 0.00 | 0.00 | 0.00 | 63 | 1009.9 |
| 20260508115513 | 23 | 190 | 0.0 | 0.0 | 0.00 | 0.00 | 0.00 | 64 | 1009.8 |
| 20260508115013 | 23 | 190 | 0.0 | 0.0 | 0.00 | 0.00 | 0.00 | 64 | 1009.7 |
| 20260508114558 | 23 | 0 | 0.0 | 0.0 | 0.00 | 0.00 | 0.00 | 63 | 1009.4 |
| 20260508114513 | 23 | 190 | 0.0 | 0.0 | 0.00 | 0.00 | 0.00 | 63 | 1009.7 |
| 20260508114012 | 23 | 190 | 0.0 | 0.0 | 0.00 | 0.00 | 0.00 | 63 | 1009.7 |
| 20260508113512 | 23 | 190 | 0.0 | 0.0 | 0.00 | 0.00 | 0.00 | 63 | 1009.7 |
| 20260508113105 | 23 | 0 | 0.0 | 0.0 | 0.00 | 0.00 | 0.00 | 62 | 1009.2 |
| 20260508113014 | 23 | 190 | 0.0 | 0.0 | 0.00 | 0.00 | 0.00 | 63 | 1009.6 |
| 20260508112511 | 23 | 190 | 0.0 | 0.0 | 0.00 | 0.00 | 0.00 | 63 | 1009.6 |
| 20260508112010 | 23 | 190 | 0.0 | 0.0 | 0.00 | 0.00 | 0.00 | 62 | 1009.6 |
| 20260508111609 | 23 | 0 | 0.0 | 0.0 | 0.00 | 0.00 | 0.00 | 62 | 1009.3 |
| 20260508111512 | 23 | 190 | 0.0 | 0.0 | 0.00 | 0.00 | 0.00 | 62 | 1009.6 |
| 20260508111010 | 23 | 190 | 0.0 | 0.0 | 0.00 | 0.00 | 0.00 | 62 | 1009.6 |
| 20260508110509 | 23 | 190 | 0.0 | 0.0 | 0.00 | 0.00 | 0.00 | 62 | 1009.6 |
| 20260508110104 | 23 | 0 | 0.0 | 0.0 | 0.00 | 0.00 | 0.00 | 62 | 1009.1 |
| 20260508110009 | 23 | 190 | 0.0 | 0.0 | 0.00 | 0.00 | 0.00 | 62 | 1009.4 |
| 20260508105509 | 23 | 190 | 0.0 | 0.0 | 0.00 | 0.00 | 0.00 | 62 | 1009.4 |
| 20260508105011 | 23 | 190 | 0.0 | 0.0 | 0.00 | 0.00 | 0.00 | 62 | 1009.3 |
| 20260508104559 | 23 | 0 | 0.0 | 3.2 | 0.00 | 0.00 | 0.00 | 61 | 1009.0 |
| 20260508104508 | 23 | 190 | 0.0 | 3.2 | 0.00 | 0.00 | 0.00 | 62 | 1009.3 |
| 20260508104009 | 23 | 190 | 0.0 | 3.2 | 0.00 | 0.00 | 0.00 | 61 | 1009.2 |
| 20260508103506 | 23 | 190 | 0.0 | 0.0 | 0.00 | 0.00 | 0.00 | 61 | 1009.3 |
| 20260508103112 | 23 | 0 | 0.0 | 0.0 | 0.00 | 0.00 | 0.00 | 60 | 1009.0 |
| 20260508103014 | 23 | 190 | 0.0 | 0.0 | 0.00 | 0.00 | 0.00 | 61 | 1009.2 |
| 20260508102506 | 23 | 190 | 0.0 | 0.0 | 0.00 | 0.00 | 0.00 | 60 | 1009.2 |
| 20260508102003 | 24 | 190 | 0.0 | 0.0 | 0.00 | 0.00 | 0.00 | 60 | 1009.2 |
| 20260508101559 | 24 | 0 | 0.0 | 4.8 | 0.00 | 0.00 | 0.00 | 59 | 1008.8 |
| 20260508101505 | 24 | 190 | 0.0 | 4.8 | 0.00 | 0.00 | 0.00 | 60 | 1009.2 |
| 20260508101004 | 24 | 190 | 0.0 | 4.8 | 0.00 | 0.00 | 0.00 | 60 | 1009.1 |
| 20260508100502 | 24 | 190 | 0.0 | 3.2 | 0.00 | 0.00 | 0.00 | 59 | 1009.1 |
| 20260508100057 | 24 | 0 | 0.0 | 0.0 | 0.00 | 0.00 | 0.00 | 59 | 1008.9 |
| 20260508095600 | 24 | 190 | 0.0 | 0.0 | 0.00 | 0.00 | 0.00 | 59 | 1009.0 |
| 20260508095101 | 25 | 190 | 0.0 | 0.0 | 0.00 | 0.00 | 0.00 | 58 | 1009.1 |
| 20260508094610 | 25 | 0 | 0.0 | 0.0 | 0.00 | 0.00 | 0.00 | 58 | 1008.9 |
| 20260508094607 | 25 | 190 | 0.0 | 0.0 | 0.00 | 0.00 | 0.00 | 58 | 1009.2 |
| 20260508094101 | 25 | 190 | 0.0 | 0.0 | 0.00 | 0.00 | 0.00 | 58 | 1009.2 |
| 20260508093557 | 25 | 190 | 0.0 | 0.0 | 0.00 | 0.00 | 0.00 | 58 | 1009.2 |
| 20260508093058 | 25 | 0 | 0.0 | 6.4 | 0.00 | 0.00 | 0.00 | 57 | 1009.1 |
| 20260508092556 | 25 | 190 | 1.6 | 6.4 | 0.00 | 0.00 | 0.00 | 58 | 1009.4 |
| 20260508092053 | 25 | 190 | 3.2 | 6.4 | 0.00 | 0.00 | 0.00 | 57 | 1009.5 |
| 20260508091604 | 25 | 190 | 0.0 | 4.8 | 0.00 | 0.00 | 0.00 | 55 | 1009.2 |
| 20260508091556 | 25 | 190 | 0.0 | 4.8 | 0.00 | 0.00 | 0.00 | 55 | 1009.4 |
| 20260508091052 | 26 | 190 | 1.6 | 4.8 | 0.00 | 0.00 | 0.00 | 55 | 1009.3 |
| 20260508090551 | 26 | 190 | 0.0 | 0.0 | 0.00 | 0.00 | 0.00 | 54 | 1009.4 |
| 20260508090056 | 26 | 0 | 0.0 | 0.0 | 0.00 | 0.00 | 0.00 | 54 | 1009.1 |
| 20260508090050 | 26 | 190 | 0.0 | 0.0 | 0.00 | 0.00 | 0.00 | 54 | 1009.4 |
| 20260508085549 | 26 | 190 | 0.0 | 0.0 | 0.00 | 0.00 | 0.00 | 54 | 1009.5 |
| 20260508085048 | 26 | 190 | 0.0 | 3.2 | 0.00 | 0.00 | 0.00 | 54 | 1009.5 |
| 20260508084557 | 26 | 0 | 1.6 | 3.2 | 0.00 | 0.00 | 0.00 | 53 | 1009.3 |
| 20260508084548 | 26 | 190 | 0.0 | 3.2 | 0.00 | 0.00 | 0.00 | 54 | 1009.5 |
| 20260508084047 | 26 | 190 | 0.0 | 0.0 | 0.00 | 0.00 | 0.00 | 54 | 1009.6 |
| 20260508083545 | 26 | 190 | 0.0 | 0.0 | 0.00 | 0.00 | 0.00 | 54 | 1009.6 |
| 20260508083146 | 26 | 0 | 0.0 | 0.0 | 0.00 | 0.00 | 0.00 | 53 | 1009.4 |
| 20260508083046 | 26 | 190 | 0.0 | 0.0 | 0.00 | 0.00 | 0.00 | 53 | 1009.6 |
| 20260508082545 | 26 | 190 | 0.0 | 0.0 | 0.00 | 0.00 | 0.00 | 53 | 1009.6 |
| 20260508082044 | 26 | 190 | 0.0 | 3.2 | 0.00 | 0.00 | 0.00 | 53 | 1009.6 |
| 20260508081558 | 27 | 190 | 0.0 | 0.0 | 0.00 | 0.00 | 0.00 | 52 | 1009.5 |
| 20260508081553 | 27 | 190 | 0.0 | 3.2 | 0.00 | 0.00 | 0.00 | 53 | 1009.7 |
| 20260508081042 | 27 | 190 | 0.0 | 0.0 | 0.00 | 0.00 | 0.00 | 52 | 1009.6 |
| 20260508080545 | 27 | 190 | 0.0 | 0.0 | 0.00 | 0.00 | 0.00 | 52 | 1009.7 |
| 20260508080101 | 27 | 0 | 0.0 | 0.0 | 0.00 | 0.00 | 0.00 | 52 | 1009.5 |
| 20260508080047 | 27 | 190 | 0.0 | 0.0 | 0.00 | 0.00 | 0.00 | 52 | 1009.7 |
| 20260508075541 | 27 | 190 | 0.0 | 3.2 | 0.00 | 0.00 | 0.00 | 52 | 1009.8 |
| 20260508075038 | 27 | 190 | 0.0 | 3.2 | 0.00 | 0.00 | 0.00 | 52 | 1009.9 |
| 20260508074556 | 27 | 0 | 0.0 | 3.2 | 0.00 | 0.00 | 0.00 | 51 | 1009.9 |
| 20260508074539 | 27 | 190 | 0.0 | 0.0 | 0.00 | 0.00 | 0.00 | 52 | 1010.1 |
| 20260508074037 | 27 | 190 | 0.0 | 3.2 | 0.00 | 0.00 | 0.00 | 51 | 1010.0 |
| 20260508073537 | 27 | 190 | 0.0 | 3.2 | 0.00 | 0.00 | 0.00 | 51 | 1010.1 |
| 20260508073100 | 27 | 0 | 0.0 | 0.0 | 0.00 | 0.00 | 0.00 | 50 | 1009.9 |
| 20260508073036 | 27 | 190 | 0.0 | 0.0 | 0.00 | 0.00 | 0.00 | 51 | 1010.1 |
| 20260508072536 | 27 | 190 | 0.0 | 0.0 | 0.00 | 0.00 | 0.00 | 51 | 1010.1 |
| 20260508072035 | 27 | 190 | 0.0 | 0.0 | 0.00 | 0.00 | 0.00 | 51 | 1010.2 |
| 20260508071559 | 27 | 0 | 0.0 | 0.0 | 0.00 | 0.00 | 0.00 | 51 | 1010.0 |
| 20260508071535 | 27 | 190 | 0.0 | 0.0 | 0.00 | 0.00 | 0.00 | 51 | 1010.2 |
| 20260508071034 | 27 | 190 | 0.0 | 0.0 | 0.00 | 0.00 | 0.00 | 51 | 1010.3 |
| 20260508070534 | 27 | 190 | 0.0 | 0.0 | 0.00 | 0.00 | 0.00 | 50 | 1010.3 |
| 20260508070105 | 27 | 0 | 0.0 | 3.2 | 0.00 | 0.00 | 0.00 | 49 | 1010.1 |
| 20260508070032 | 27 | 190 | 0.0 | 0.0 | 0.00 | 0.00 | 0.00 | 50 | 1010.4 |
| 20260508065533 | 28 | 190 | 0.0 | 3.2 | 0.00 | 0.00 | 0.00 | 50 | 1010.5 |
| 20260508065031 | 28 | 190 | 0.0 | 3.2 | 0.00 | 0.00 | 0.00 | 50 | 1010.5 |
| 20260508064611 | 28 | 190 | 0.0 | 0.0 | 0.00 | 0.00 | 0.00 | 49 | 1010.3 |
| 20260508064531 | 28 | 190 | 0.0 | 0.0 | 0.00 | 0.00 | 0.00 | 49 | 1010.5 |
| 20260508064031 | 28 | 190 | 0.0 | 3.2 | 0.00 | 0.00 | 0.00 | 49 | 1010.5 |
| 20260508063530 | 28 | 190 | 0.0 | 3.2 | 0.00 | 0.00 | 0.00 | 49 | 1010.5 |
| 20260508063058 | 28 | 0 | 0.0 | 4.8 | 0.00 | 0.00 | 0.00 | 48 | 1010.2 |
| 20260508063030 | 28 | 190 | 0.0 | 4.8 | 0.00 | 0.00 | 0.00 | 49 | 1010.4 |
| 20260508062532 | 28 | 190 | 0.0 | 4.8 | 0.00 | 0.00 | 0.00 | 48 | 1010.5 |
| 20260508062030 | 28 | 190 | 0.0 | 0.0 | 0.00 | 0.00 | 0.00 | 48 | 1010.6 |
| 20260508061603 | 28 | 0 | 0.0 | 0.0 | 0.00 | 0.00 | 0.00 | 47 | 1010.2 |
| 20260508061531 | 28 | 190 | 0.0 | 0.0 | 0.00 | 0.00 | 0.00 | 47 | 1010.5 |
| 20260508061030 | 28 | 190 | 0.0 | 0.0 | 0.00 | 0.00 | 0.00 | 47 | 1010.5 |
| 20260508060529 | 28 | 190 | 0.0 | 0.0 | 0.00 | 0.00 | 0.00 | 47 | 1010.3 |
| 20260508060106 | 28 | 0 | 0.0 | 3.2 | 0.00 | 0.00 | 0.00 | 47 | 1010.1 |
| 20260508060030 | 28 | 190 | 0.0 | 0.0 | 0.00 | 0.00 | 0.00 | 47 | 1010.4 |
| 20260508055530 | 28 | 190 | 0.0 | 3.2 | 0.00 | 0.00 | 0.00 | 47 | 1010.4 |
| 20260508055029 | 28 | 190 | 0.0 | 4.8 | 0.00 | 0.00 | 0.00 | 46 | 1010.4 |
| 20260508054605 | 29 | 0 | 0.0 | 4.8 | 0.00 | 0.00 | 0.00 | 46 | 1010.1 |
| 20260508054533 | 29 | 190 | 1.6 | 4.8 | 0.00 | 0.00 | 0.00 | 46 | 1010.5 |
| 20260508054029 | 29 | 190 | 0.0 | 4.8 | 0.00 | 0.00 | 0.00 | 46 | 1010.5 |
| 20260508053529 | 29 | 190 | 0.0 | 4.8 | 0.00 | 0.00 | 0.00 | 45 | 1010.5 |
| 20260508053105 | 29 | 0 | 1.6 | 9.7 | 0.00 | 0.00 | 0.00 | 44 | 1010.2 |
| 20260508053031 | 29 | 190 | 0.0 | 9.7 | 0.00 | 0.00 | 0.00 | 45 | 1010.5 |
| 20260508052532 | 29 | 190 | 3.2 | 9.7 | 0.00 | 0.00 | 0.00 | 44 | 1010.5 |
| 20260508052029 | 30 | 190 | 0.0 | 4.8 | 0.00 | 0.00 | 0.00 | 44 | 1010.6 |
| 20260508051556 | 30 | 0 | 1.6 | 4.8 | 0.00 | 0.00 | 0.00 | 43 | 1010.4 |
| 20260508051531 | 30 | 190 | 0.0 | 3.2 | 0.00 | 0.00 | 0.00 | 44 | 1010.6 |
| 20260508051030 | 30 | 190 | 0.0 | 4.8 | 0.00 | 0.00 | 0.00 | 44 | 1010.5 |
| 20260508050527 | 30 | 190 | 0.0 | 4.8 | 0.00 | 0.00 | 0.00 | 44 | 1010.4 |
| 20260508050100 | 30 | 190 | 0.0 | 3.2 | 0.00 | 0.00 | 0.00 | 43 | 1010.0 |
| 20260508050029 | 30 | 190 | 0.0 | 1.6 | 0.00 | 0.00 | 0.00 | 43 | 1010.3 |
| 20260508045527 | 30 | 190 | 0.0 | 4.8 | 0.00 | 0.00 | 0.00 | 43 | 1010.2 |
| 20260508045027 | 30 | 190 | 0.0 | 6.4 | 0.00 | 0.00 | 0.00 | 43 | 1010.1 |
| 20260508044558 | 30 | 190 | 0.0 | 3.2 | 0.00 | 0.00 | 0.00 | 42 | 1009.7 |
| 20260508044527 | 30 | 190 | 0.0 | 3.2 | 0.00 | 0.00 | 0.00 | 43 | 1010.1 |
| 20260508044028 | 30 | 190 | 0.0 | 3.2 | 0.00 | 0.00 | 0.00 | 43 | 1010.0 |
| 20260508043527 | 30 | 190 | 0.0 | 3.2 | 0.00 | 0.00 | 0.00 | 43 | 1009.8 |
| 20260508043144 | 30 | 0 | 0.0 | 6.4 | 0.00 | 0.00 | 0.00 | 42 | 1009.4 |
| 20260508043027 | 30 | 190 | 0.0 | 6.4 | 0.00 | 0.00 | 0.00 | 43 | 1009.7 |
| 20260508042527 | 30 | 190 | 1.6 | 6.4 | 0.00 | 0.00 | 0.00 | 42 | 1009.7 |
| 20260508042027 | 30 | 190 | 0.0 | 6.4 | 0.00 | 0.00 | 0.00 | 42 | 1009.6 |
| 20260508041604 | 30 | 190 | 0.0 | 4.8 | 0.00 | 0.00 | 0.00 | 41 | 1009.2 |
| 20260508041526 | 30 | 190 | 1.6 | 4.8 | 0.00 | 0.00 | 0.00 | 42 | 1009.4 |
| 20260508041027 | 30 | 190 | 0.0 | 3.2 | 0.00 | 0.00 | 0.00 | 42 | 1009.2 |
| 20260508040526 | 31 | 190 | 0.0 | 4.8 | 0.00 | 0.00 | 0.00 | 42 | 1009.1 |
| 20260508040110 | 31 | 190 | 0.0 | 4.8 | 0.00 | 0.00 | 0.00 | 41 | 1008.8 |
| 20260508040026 | 31 | 190 | 0.0 | 4.8 | 0.00 | 0.00 | 0.00 | 42 | 1009.0 |
| 20260508035526 | 31 | 190 | 0.0 | 1.6 | 0.00 | 0.00 | 0.00 | 42 | 1008.9 |
| 20260508035025 | 31 | 190 | 0.0 | 1.6 | 0.00 | 0.00 | 0.00 | 42 | 1008.7 |
| 20260508034559 | 31 | 0 | 0.0 | 9.7 | 0.00 | 0.00 | 0.00 | 41 | 1008.5 |
| 20260508034534 | 31 | 190 | 0.0 | 9.7 | 0.00 | 0.00 | 0.00 | 41 | 1008.6 |
| 20260508034024 | 31 | 190 | 4.8 | 11.3 | 0.00 | 0.00 | 0.00 | 41 | 1008.6 |
| 20260508033527 | 31 | 190 | 1.6 | 11.3 | 0.00 | 0.00 | 0.00 | 41 | 1008.5 |
| 20260508033102 | 31 | 190 | 3.2 | 11.3 | 0.00 | 0.00 | 0.00 | 40 | 1008.3 |
| 20260508033026 | 31 | 190 | 3.2 | 11.3 | 0.00 | 0.00 | 0.00 | 40 | 1008.5 |
| 20260508032524 | 31 | 190 | 1.6 | 11.3 | 0.00 | 0.00 | 0.00 | 40 | 1008.3 |
| 20260508032025 | 32 | 190 | 1.6 | 12.9 | 0.00 | 0.00 | 0.00 | 39 | 1008.2 |
| 20260508031608 | 32 | 190 | 3.2 | 12.9 | 0.00 | 0.00 | 0.00 | 39 | 1008.1 |
| 20260508031524 | 32 | 190 | 3.2 | 12.9 | 0.00 | 0.00 | 0.00 | 39 | 1008.2 |
| 20260508031024 | 32 | 190 | 0.0 | 11.3 | 0.00 | 0.00 | 0.00 | 39 | 1008.0 |
| 20260508030524 | 32 | 190 | 1.6 | 11.3 | 0.00 | 0.00 | 0.00 | 39 | 1007.7 |
| 20260508030124 | 32 | 190 | 3.2 | 12.9 | 0.00 | 0.00 | 0.00 | 39 | 1007.3 |
| 20260508030024 | 32 | 190 | 3.2 | 12.9 | 0.00 | 0.00 | 0.00 | 39 | 1007.3 |
| 20260508025523 | 32 | 190 | 6.4 | 12.9 | 0.00 | 0.00 | 0.00 | 39 | 1007.0 |
| 20260508025022 | 32 | 190 | 6.4 | 11.3 | 0.00 | 0.00 | 0.00 | 38 | 1007.0 |
| 20260508024605 | 33 | 190 | 6.4 | 12.9 | 0.00 | 0.00 | 0.00 | 37 | 1006.8 |
| 20260508024529 | 33 | 190 | 6.4 | 12.9 | 0.00 | 0.00 | 0.00 | 37 | 1006.9 |
| 20260508024023 | 33 | 190 | 3.2 | 11.3 | 0.00 | 0.00 | 0.00 | 36 | 1006.8 |
| 20260508023523 | 33 | 190 | 4.8 | 9.7 | 0.00 | 0.00 | 0.00 | 35 | 1006.8 |
| 20260508023058 | 33 | 190 | 1.6 | 6.4 | 0.00 | 0.00 | 0.00 | 34 | 1006.5 |
| 20260508023026 | 33 | 190 | 1.6 | 6.4 | 0.00 | 0.00 | 0.00 | 35 | 1006.7 |
| 20260508022521 | 33 | 190 | 0.0 | 4.8 | 0.00 | 0.00 | 0.00 | 35 | 1006.6 |